Luverne, MN

9:41 PM CDT on July 25, 2017 (GMT -0500)
Luverne

Weather History for KLYV - June, 2012

Change the Weather History Date:

Saturday, June 16, 2012

  Actual Average (KPQN) Record (KPQN)
Temperature  
Mean Temperature 68 °F -  
Max Temperature 80 °F 74 °F 91 °F (2003)
Min Temperature 57 °F 54 °F 44 °F (2002)
Cooling Degree Days 4    
Growing Degree Days 18 (Base 50)    
Moisture  
Dew Point 53 °F    
Average Humidity 61    
Maximum Humidity 94    
Minimum Humidity 22    
Precipitation  
Precipitation 0.00 in - - ()
Sea Level Pressure  
Sea Level Pressure 29.96 in    
Wind  
Wind Speed 5 mph (WNW)    
Max Wind Speed 20 mph    
Max Gust Speed 26 mph    
Visibility 9 miles    
Events      
Averages and records for this station are not official NWS values.
T = Trace of Precipitation, MM = Missing Value Source: NWS Daily Summary

Daily Weather History Graph

Daily Weather History Graph

Search for Another Location

Airport or City:

Trip Planner

Search our weather history database for the weather conditions in past years. The results will help you decide how hot, cold, wet, or windy it might be!

Date:

Astronomy

Jun. 16, 2012 Rise Set
Actual Time 5:42 AM CDT 9:08 PM CDT
Civil Twilight 5:06 AM CDT 9:44 PM CDT
Nautical Twilight 4:19 AM CDT 10:31 PM CDT
Astronomical Twilight 3:20 AM CDT 11:31 PM CDT
Moon 3:35 AM CDT (6/16) 6:42 PM CDT (6/16)
Length of Visible Light 16h 37m
Length of Day
15h 25m
Waning Crescent, 8% of the Moon is Illuminated
Jun 16
Waning Crescent
Jun 19
New
Jun 26
First Quarter
Jul 3
Full
Jul 10
Last Quarter

Hourly Weather History & Observations

Time (CDT) Temp. Dew Point Humidity Pressure Visibility Wind Dir Wind Speed Gust Speed Precip Events Conditions
12:17 AM 62.6 °F 55.4 °F 77% 29.99 in 10.0 mi Calm Calm - N/A   Clear
12:36 AM 62.6 °F 55.4 °F 77% 29.98 in 10.0 mi Calm Calm - N/A   Clear
12:57 AM 62.6 °F 59.0 °F 88% 29.97 in 10.0 mi Calm Calm - N/A   Clear
1:17 AM 60.8 °F 57.2 °F 88% 29.96 in 10.0 mi Calm Calm - N/A   Clear
1:36 AM 60.8 °F 55.4 °F 82% 29.95 in 10.0 mi Calm Calm - N/A   Clear
1:57 AM 60.8 °F 55.4 °F 82% 29.96 in 10.0 mi NNW 3.5 mph - N/A   Clear
2:17 AM 60.8 °F 55.4 °F 82% 29.97 in 10.0 mi Calm Calm - N/A   Clear
2:36 AM 60.8 °F 55.4 °F 82% 29.96 in 10.0 mi Calm Calm - N/A   Clear
2:57 AM 60.8 °F 55.4 °F 82% 29.97 in 10.0 mi North 3.5 mph - N/A   Clear
3:17 AM 60.8 °F 55.4 °F 82% 29.96 in 10.0 mi Calm Calm - N/A   Clear
3:36 AM 60.8 °F 55.4 °F 82% 29.96 in 10.0 mi Calm Calm - N/A   Clear
3:57 AM 60.8 °F 55.4 °F 82% 29.94 in 10.0 mi Calm Calm - N/A   Clear
4:16 AM 59.0 °F 55.4 °F 88% 29.94 in 10.0 mi Calm Calm - N/A   Clear
4:37 AM 59.0 °F 55.4 °F 88% 29.93 in 7.0 mi Calm Calm - N/A   Clear
4:57 AM 57.2 °F 55.4 °F 94% 29.92 in 7.0 mi Calm Calm - N/A   Clear
5:16 AM 59.0 °F 55.4 °F 88% 29.93 in 5.0 mi Calm Calm - N/A   Clear
5:37 AM 57.2 °F 55.4 °F 94% 29.92 in 7.0 mi Calm Calm - N/A   Clear
5:57 AM 59.0 °F 55.4 °F 88% 29.94 in 5.0 mi Calm Calm - N/A   Clear
6:16 AM 59.0 °F 55.4 °F 88% 29.95 in 5.0 mi Calm Calm - N/A   Clear
6:37 AM 60.8 °F 57.2 °F 88% 29.95 in 5.0 mi Calm Calm - N/A   Clear
6:57 AM 60.8 °F 57.2 °F 88% 29.96 in 5.0 mi ESE 3.5 mph - N/A   Clear
7:16 AM 62.6 °F 59.0 °F 88% 29.97 in 5.0 mi WSW 4.6 mph - N/A   Clear
7:37 AM 62.6 °F 59.0 °F 88% 29.97 in 7.0 mi Calm Calm - N/A   Clear
7:57 AM 64.4 °F 60.8 °F 88% 29.97 in 7.0 mi Calm Calm - N/A   Clear
8:16 AM 68.0 °F 62.6 °F 83% 29.99 in 7.0 mi WSW 5.8 mph - N/A   Scattered Clouds
8:37 AM 68.0 °F 60.8 °F 78% 29.98 in 10.0 mi West 5.8 mph - N/A   Mostly Cloudy
8:57 AM 69.8 °F 60.8 °F 73% 29.98 in 10.0 mi WSW 5.8 mph - N/A   Scattered Clouds
9:16 AM 71.6 °F 60.8 °F 69% 29.99 in 10.0 mi West 6.9 mph - N/A   Clear
9:37 AM 73.4 °F 60.8 °F 65% 29.99 in 10.0 mi West 10.4 mph - N/A   Clear
9:57 AM 71.6 °F 60.8 °F 69% 29.99 in 10.0 mi West 5.8 mph - N/A   Clear
10:16 AM 73.4 °F 60.8 °F 65% 29.99 in 10.0 mi West 10.4 mph - N/A   Clear
10:37 AM 73.4 °F 60.8 °F 65% 29.98 in 10.0 mi West 8.1 mph - N/A   Scattered Clouds
10:56 AM 73.4 °F 62.6 °F 69% 29.98 in 10.0 mi West 10.4 mph - N/A   Mostly Cloudy
11:17 AM 73.4 °F 60.8 °F 65% 29.97 in 10.0 mi WNW 17.3 mph 21.9 mph N/A   Mostly Cloudy
11:36 AM 77.0 °F 60.8 °F 57% 29.96 in 10.0 mi West 11.5 mph - N/A   Scattered Clouds
11:56 AM 77.0 °F 60.8 °F 57% 29.97 in 10.0 mi WNW 12.7 mph 18.4 mph N/A   Scattered Clouds
12:17 PM 77.0 °F 59.0 °F 54% 29.97 in 10.0 mi West 10.4 mph - N/A   Scattered Clouds
12:36 PM 77.0 °F 60.8 °F 57% 29.97 in 10.0 mi West 8.1 mph - N/A   Scattered Clouds
12:57 PM 77.0 °F 60.8 °F 57% 29.97 in 10.0 mi WSW 10.4 mph - N/A   Scattered Clouds
1:16 PM 77.0 °F 60.8 °F 57% 29.97 in 10.0 mi West 12.7 mph - N/A   Mostly Cloudy
1:37 PM 73.4 °F 60.8 °F 65% 29.97 in 10.0 mi West 11.5 mph - N/A   Overcast
1:57 PM 75.2 °F 60.8 °F 61% 29.97 in 10.0 mi NW 13.8 mph 19.6 mph N/A   Overcast
2:16 PM 75.2 °F 60.8 °F 61% 29.97 in 10.0 mi NW 17.3 mph 20.7 mph N/A   Mostly Cloudy
2:37 PM 77.0 °F 60.8 °F 57% 29.96 in 10.0 mi WNW 15.0 mph 23.0 mph N/A   Scattered Clouds
2:57 PM 77.0 °F 55.4 °F 47% 29.95 in 10.0 mi NW 15.0 mph 23.0 mph N/A   Clear
3:17 PM 75.2 °F 55.4 °F 50% 29.95 in 10.0 mi NW 16.1 mph 23.0 mph N/A   Clear
3:37 PM 77.0 °F 51.8 °F 41% 29.95 in 10.0 mi NW 16.1 mph 24.2 mph N/A   Clear
3:57 PM 78.8 °F 51.8 °F 39% 29.95 in 10.0 mi NNW 15.0 mph 21.9 mph N/A   Clear
4:16 PM 78.8 °F 48.2 °F 34% 29.95 in 10.0 mi NW 12.7 mph 26.5 mph N/A   Clear
4:37 PM 78.8 °F 50.0 °F 36% 29.94 in 10.0 mi WNW 11.5 mph 21.9 mph N/A   Clear
4:57 PM 78.8 °F 46.4 °F 32% 29.93 in 10.0 mi NW 18.4 mph 25.3 mph N/A   Clear
5:16 PM 78.8 °F 42.8 °F 28% 29.93 in 10.0 mi WNW 16.1 mph 25.3 mph N/A   Clear
5:37 PM 80.6 °F 42.8 °F 26% 29.93 in 10.0 mi WNW 12.7 mph 17.3 mph N/A   Clear
5:57 PM 78.8 °F 39.2 °F 24% 29.92 in 10.0 mi NW 15.0 mph 23.0 mph N/A   Clear
6:16 PM 78.8 °F 41.0 °F 26% 29.92 in 10.0 mi WNW 17.3 mph 20.7 mph N/A   Clear
6:37 PM 78.8 °F 39.2 °F 24% 29.93 in 10.0 mi WNW 16.1 mph 24.2 mph N/A   Clear
6:57 PM 78.8 °F 37.4 °F 23% 29.93 in 10.0 mi WNW 19.6 mph - N/A   Clear
7:16 PM 77.0 °F 35.6 °F 22% 29.93 in 10.0 mi NW 12.7 mph 21.9 mph N/A   Clear
7:37 PM 77.0 °F 37.4 °F 24% 29.93 in 10.0 mi WNW 11.5 mph 19.6 mph N/A   Clear
7:56 PM 77.0 °F 37.4 °F 24% 29.93 in 10.0 mi WNW 16.1 mph 24.2 mph N/A   Clear
8:17 PM 73.4 °F 39.2 °F 29% 29.93 in 10.0 mi WNW 9.2 mph - N/A   Clear
8:36 PM 73.4 °F 37.4 °F 27% 29.93 in 10.0 mi WNW 10.4 mph - N/A   Clear
8:57 PM 69.8 °F 39.2 °F 33% 29.94 in 10.0 mi WNW 8.1 mph - N/A   Clear
9:17 PM 68.0 °F 41.0 °F 37% 29.95 in 10.0 mi West 8.1 mph - N/A   Clear
9:37 PM 66.2 °F 42.8 °F 43% 29.95 in 10.0 mi West 6.9 mph - N/A   Clear
9:57 PM 62.6 °F 44.6 °F 52% 29.96 in 10.0 mi West 8.1 mph - N/A   Clear
10:16 PM 62.6 °F 44.6 °F 52% 29.97 in 10.0 mi West 9.2 mph - N/A   Clear
10:37 PM 62.6 °F 44.6 °F 52% 29.97 in 10.0 mi West 5.8 mph - N/A   Clear
10:57 PM 60.8 °F 44.6 °F 55% 29.97 in 10.0 mi West 9.2 mph - N/A   Clear
11:37 PM 62.6 °F 44.6 °F 52% 29.98 in 10.0 mi West 9.2 mph - N/A   Clear
11:57 PM 59.0 °F 46.4 °F 63% 29.98 in 10.0 mi West 9.2 mph - N/A   Clear